Location: Newark
(47.5000°N, 4.6167°E)
Time: 05:40:29
(UTC+00:00)

X-37B - Pass Details

Date: 07 December 2021
Orbit: 334 x 337 km, 45.0° (Epoch: 11 January)

Event Time Altitude Azimuth Distance (km) Brightness Sun altitude
Rises 17:13:25 0° 208° (SSW) 2,093 5.1 -13.3°
Reaches altitude 10° 17:16:18 10° 175° (S) 1,261 3.3 -13.8°
Maximum altitude 17:17:30 12° 149° (SSE) 1,152 2.8 -14.0°
Enters shadow 17:18:04 12° 137° (SE) 1,179 2.8 -14.1°
